CZ-2D R/B, 43486

Orbit data source: Space-Track

CZ-2D R/B, 43486 is space debris in SSO originally from a launch on Sat, 02 Jun 2018 UTC launched from the Jiuquan Satellite Launch Center, China (JSC). Debris objects in space refer to the collection of defunct objects orbiting the Earth. Examples of debris include non-operational satellites, rocket bodies, and fragments generated from explosions, collisions, or faulty payload assembly.

Loading next visibility...
Identifier
43486, 2018-048C
Orbit
SSO
Country
Flag of CNCN / PRC
Related business
Manufacturer
CALT
Mission
Spacecraft
Bus & Motor
Unknown
Mass
1 kg wet, 1 kg dry
Launch date (UTC)
2018-06-02 (7 years ago)
Launch vehicle
Unknown
Launch site
Jiuquan Satellite Launch Center, China (JSC)
Object type
Payload
Rocket body
Debris
Shape & HBR
Cone, 0.1 m
Radar Cross Section
0.025 m², Small (<0.1 m²)

Expand to show TLE details & history
Last TLE update: 14 hours ago

TLE from 14 hours ago
0 CZ-2D R/B
1 43486U 18048C   25306.37446961  .00005434  00000-0  52476-3 0  9995
2 43486  97.6040 338.5905 0011281 190.1392 169.9602 14.93190676401288
Epoch: 2025-11-02T08:59Z
TLE epoch observation values (Epoch: 2025-11-02T08:59:14.174Z)
Latitude
-0.00003°
Longitude
161.89033°
Altitude
598.783 km
Speed
7.556 km/s
True Right ascension
22h 34m 21s
True Declination
0° 00' 00"
Sunlit
Object was in full shadow at epoch
Visualization orbit readout
Latitude
Unknown
Longitude
Unknown
Altitude
Unknown
Speed
Unknown
Apparent Right ascension
Unknown
Apparent Declination
Unknown
Sunlit
N/A
Visualization observer readout
Local Sidereal Time
18:40:39
Azimuth
Unknown
Elevation
Unknown
Doppler factor
Unknown
Orbital elements
Apogee altitude
592.86 km
Perigee altitude
577.149 km
Semi-major axis
6,963.142 km
Eccentricity
0.00113
Inclination
97.604°
RAAN
338.5905°
Arg. of periapsis
190.1392°
True anomaly
169.9827°
Mean anomaly
169.9602°
Eccentric anomaly
169.97146°
Mean motion
3.73538 °/min
Orbital period
96.38 mins
BSTAR
0.00052476
Loading maneuver chart data...
Computing Atmospheric mass density...
Loading historical data...
Loading historical data...
Loading historical data...
Loading historical data...
Loading historical data...
Loading historical data...
Loading historical data...
Other satellites on launch #48 in the year 2018 (2018-06-02 UTC)

Documentation

Showing up to 5 results
|